Regional Weather Roundup
Issued by NWS

Home | Current Version | Previous Version | Graphics & Text | Print | Product List | Glossary On
Versions: 1 2 3 4 5 6 7 8 9 10 11 12 13 14 15 16 17 18 19 20 21 22 23 24 25 26 27 28 29 30 31 32 33 34 35 36 37 38 39 40 41 42 43 44 45 46 47 48 49 50
000
ASUS45 KCYS 200510
RWRWY

WYOMING REGIONAL WEATHER ROUNDUP
NATIONAL WEATHER SERVICE CHEYENNE WY
1000 PM MST FRI DEC 19 2014

NOTE:  "FAIR" INDICATES FEW OR NO CLOUDS BELOW 12,000 FEET
WITH NO SIGNIFICANT WEATHER AND/OR OBSTRUCTIONS TO VISIBILITY.

WYZ001-200600-
YELLOWSTONE NATIONAL PARK

CITY           SKY/WX    TMP DP  RH WIND       PRES   REMARKS
LK YELLOWSTONE   N/A     26  21  81 VRB5      30.03S WCI  20
W YELLOWSTONE  NOT AVBL

$$
WYZ002>013-054>058-071-098>099-200600-
NORTHERN WYOMING

CITY           SKY/WX    TMP DP  RH WIND       PRES   REMARKS
JACKSON        CLOUDY    30  28  93 CALM      30.04S
CODY           FAIR      39  21  48 NW6       29.92R WCI  35
GREYBULL       MOCLDY    18  15  88 NW5       29.98R WCI  11
WORLAND        FAIR      13  10  88 CALM      29.95F
SHERIDAN       FAIR      24  19  81 S5        29.88R WCI  18
BUFFALO        FAIR      33  18  53 W7        29.88S WCI  27
GILLETTE       FAIR      34  21  59 SW7       29.88S WCI  28
HULETT           N/A    N/A N/A N/A MISG        N/A
NEWCASTLE      FAIR      27  19  74 CALM      29.94F

$$
WYZ014>020-022>026-101>103-200600-
CENTRAL WYOMING

CITY           SKY/WX    TMP DP  RH WIND       PRES   REMARKS
BIG PINEY      FAIR      23  18  81 NE7       30.06F WCI  15
PINEDALE       CLOUDY    25  23  93 NW3       30.08S
DUBOIS         NOT AVBL
LANDER         FAIR      11   8  88 VRB3      29.96S FOG
RIVERTON       FAIR      11   8  88 CALM      29.98S
CASPER         FAIR      30  21  69 SW25G32   29.96S WCI  16
DOUGLAS        FAIR      32  21  64 W3        29.95S

$$
WYZ021-027>030-104>119-200600-
SOUTHERN WYOMING

CITY           SKY/WX    TMP DP  RH WIND       PRES   REMARKS
EVANSTON       CLOUDY    30  21  69 SW7       30.10S WCI  23
KEMMERER       LGT SNOW  28  25  86 W15       30.08S WCI  17
FORT BRIDGER   CLOUDY    33  23  66 W10       30.12S WCI  25
ROCK SPRINGS   CLOUDY    30  22  72 W8        30.08S WCI  22
DIXON          CLOUDY    25  19  78 SE3       30.16F
RAWLINS        FAIR      28  19  69 SW20G32   30.04F WCI  15
SARATOGA       CLOUDY    25  18  74 SE9       30.09S WCI  15
LARAMIE        FAIR      23  14  68 SW14      30.01S WCI  11
CHEYENNE       FAIR      32  15  49 W12       29.98S WCI  23
TORRINGTON     FAIR     N/A N/A N/A CALM      29.96F
PINE BLUFFS    FAIR      27  19  74 W6        30.01S WCI  20

$$



USA.gov is the U.S. government's official web portal to all federal, state and local government web resources and services.